Regional Weather Roundup
Issued by NWS Raleigh/Durham, NC

Home | Current Version | Previous Version | Text Only | Print | Product List | Glossary On
Versions: 1 2 3 4 5 6 7 8 9 10 11 12 13 14 15 16 17 18 19 20 21 22 23 24 25 26 27 28
000
ASUS42 KRAH 201010
RWRRAH
NORTH CAROLINA WEATHER ROUNDUP
NATIONAL WEATHER SERVICE RALEIGH NC
500 AM EST FRI JAN 20 2017

NOTE: "FAIR" INDICATES FEW OR NO CLOUDS BELOW 12,000 FEET WITH NO
SIGNIFICANT WEATHER AND/OR OBSTRUCTIONS TO VISIBILITY.

NCZ001-053-055-056-065-067-201100-
WESTERN NORTH CAROLINA

CITY           SKY/WX    TMP DP  RH WIND       PRES   REMARKS
ASHEVILLE      CLOUDY    48  46  93 SE3       29.84F
JEFFERSON      RAIN      44  40  88 CALM      29.86S
HICKORY        LGT RAIN  47  47 100 N3        29.86F FOG
RUTHERFORDTON  NOT AVBL
MOUNT AIRY     NOT AVBL
BOONE          RAIN      43  43 100 CALM      29.88S
$$

NCZ021-022-025-041-071-084-088-201100-
CENTRAL NORTH CAROLINA

CITY           SKY/WX    TMP DP  RH WIND       PRES   REMARKS
CHARLOTTE      CLOUDY    55  44  66 SE16      29.85F
GREENSBORO     CLOUDY    50  42  74 SE8       29.85F
WINSTON-SALEM  CLOUDY    50  40  68 SE3       29.88F
RALEIGH-DURHAM CLOUDY    48  43  82 SE3       29.92F
FORT BRAGG     CLOUDY    47  45  91 CALM      29.91F
FAYETTEVILLE   CLOUDY    47  44  90 E3        29.92F
BURLINGTON     CLOUDY    47  42  83 E3        29.91F
LAURINBURG     CLOUDY    49  46  90 E3        29.91F
$$

NCZ011-015-027-028-043-044-047-080-103-201100-
NORTHEASTERN NORTH CAROLINA

CITY           SKY/WX    TMP DP  RH WIND       PRES   REMARKS
ROCKY MT-WILSO CLOUDY    43  43 100 CALM      29.96S
GREENVILLE     CLOUDY    43  43 100 CALM      29.98F
WASHINGTON     CLOUDY    43  41  93 CALM        N/A
ELIZABETH CITY CLOUDY    44  43  96 S3        29.99F
MANTEO         PTCLDY    43  43 100 CALM      30.00S
CAPE HATTERAS  PTCLDY    48  43  82 NE7       30.00F
$$

NCZ078-087-090-091-093-098-101-201100-
SOUTHEASTERN NORTH CAROLINA

CITY           SKY/WX    TMP DP  RH WIND       PRES   REMARKS
LUMBERTON      CLOUDY    50  48  93 SE6       29.91F
GOLDSBORO      CLOUDY    45  45 100 E6        29.92F
KENANSVILLE    NOT AVBL
NEW BERN       CLOUDY    44  43  96 CALM      29.97F
CHERRY POINT   CLOUDY    46  44  93 CALM      29.97F
BEAUFORT       CLOUDY    48  46  93 NE3       29.96F
JACKSONVILLE   CLOUDY    48  47  96 CALM      29.94F
WILMINGTON     MOCLDY    53  51  93 E5        29.93F
$$





USA.gov is the U.S. government's official web portal to all federal, state and local government web resources and services.